Honolulu, HI

9:17 AM HST on July 28, 2017 (GMT -1000)
Honolulu International

Weather History for PHNL - January, 2013

Change the Weather History Date:

Saturday, January 12, 2013

  Actual Average Record
Temperature  
Mean Temperature 74 °F 73 °F  
Max Temperature 80 °F 80 °F 86 °F (1988)
Min Temperature 68 °F 66 °F 57 °F (1978)
Degree Days  
Heating Degree Days 0 0  
Month to date heating degree days 0 0  
Since 1 July heating degree days 0 0  
Cooling Degree Days 9 8  
Month to date cooling degree days 76 98  
Year to date cooling degree days 76 98  
Growing Degree Days 23 (Base 50)    
Moisture  
Dew Point 66 °F    
Average Humidity 77    
Maximum Humidity 87    
Minimum Humidity 67    
Precipitation  
Precipitation 0.06 in 0.08 in 2.04 in (1956)
Month to date precipitation 0.21 1.07  
Year to date precipitation 0.21 1.07  
Snow  
Snow 0.00 in - - ()
Month to date snowfall 0.0  
Since 1 July snowfall 0.0  
Snow Depth 0.00 in    
Sea Level Pressure  
Sea Level Pressure 29.93 in    
Wind  
Wind Speed 6 mph (East)    
Max Wind Speed 15 mph    
Max Gust Speed 17 mph    
Visibility 10 miles    
Events Rain    
T = Trace of Precipitation, MM = Missing Value Source: NWS Daily Summary

Daily Weather History Graph

Daily Weather History Graph

Search for Another Location

Airport or City:

Trip Planner

Search our weather history database for the weather conditions in past years. The results will help you decide how hot, cold, wet, or windy it might be!

Date:

Astronomy

Jan. 12, 2013 Rise Set
Actual Time 7:11 AM HST 6:08 PM HST
Civil Twilight 6:47 AM HST 6:32 PM HST
Nautical Twilight 6:20 AM HST 7:00 PM HST
Astronomical Twilight 5:53 AM HST 7:27 PM HST
Moon 7:52 AM HST (1/12) 7:34 PM HST (1/12)
Length of Visible Light 11h 45m
Length of Day
10h 57m
New Moon, 2% of the Moon is Illuminated
Jan 12
New Moon
Jan 18
First Quarter
Jan 26
Full
Feb 3
Last Quarter
Feb 9
New

Hourly Weather History & Observations

Time (HST) Temp. Dew Point Humidity Pressure Visibility Wind Dir Wind Speed Gust Speed Precip Events Conditions
12:53 AM 72.0 °F 64.0 °F 76% 29.92 in 10.0 mi Calm Calm - N/A   Scattered Clouds
1:53 AM 69.1 °F 63.0 °F 81% 29.91 in 10.0 mi Calm Calm - N/A   Partly Cloudy
2:53 AM 70.0 °F 64.0 °F 81% 29.91 in 10.0 mi NNE 3.5 mph - N/A   Partly Cloudy
3:53 AM 70.0 °F 64.0 °F 81% 29.91 in 10.0 mi NNW 3.5 mph - N/A   Partly Cloudy
4:53 AM 71.1 °F 64.9 °F 81% 29.91 in 10.0 mi NE 4.6 mph - N/A   Partly Cloudy
5:53 AM 71.1 °F 64.9 °F 81% 29.92 in 10.0 mi NNE 4.6 mph - N/A   Partly Cloudy
6:53 AM 71.1 °F 64.9 °F 81% 29.94 in 10.0 mi Calm Calm - N/A   Mostly Cloudy
7:53 AM 73.0 °F 66.0 °F 79% 29.95 in 10.0 mi NE 6.9 mph - N/A   Mostly Cloudy
8:53 AM 75.0 °F 64.9 °F 71% 29.97 in 10.0 mi ENE 6.9 mph - N/A   Mostly Cloudy
9:53 AM 75.0 °F 66.0 °F 73% 29.97 in 10.0 mi ESE 8.1 mph - N/A   Mostly Cloudy
10:53 AM 77.0 °F 66.0 °F 69% 29.95 in 10.0 mi East 8.1 mph - N/A   Mostly Cloudy
11:53 AM 79.0 °F 66.9 °F 66% 29.92 in 10.0 mi SE 9.2 mph - 0.00 in   Mostly Cloudy
12:53 PM 78.1 °F 68.0 °F 71% 29.90 in 5.0 mi ESE 13.8 mph - 0.00 in Rain Rain
1:53 PM 73.0 °F 69.1 °F 87% 29.90 in 7.0 mi East 3.5 mph - 0.06 in Rain Rain
3:01 PM 75.9 °F 69.1 °F 79% 29.89 in 10.0 mi Calm Calm - 0.00 in   Mostly Cloudy
3:53 PM 77.0 °F 69.1 °F 76% 29.90 in 10.0 mi South 3.5 mph - N/A   Mostly Cloudy
4:53 PM 77.0 °F 68.0 °F 74% 29.91 in 10.0 mi SE 8.1 mph - N/A   Scattered Clouds
5:53 PM 75.9 °F 66.9 °F 74% 29.92 in 10.0 mi SE 8.1 mph - N/A   Scattered Clouds
6:53 PM 75.0 °F 68.0 °F 79% 29.93 in 10.0 mi ESE 8.1 mph - N/A   Scattered Clouds
7:53 PM 73.9 °F 66.9 °F 79% 29.95 in 10.0 mi ESE 6.9 mph - N/A   Scattered Clouds
8:53 PM 73.0 °F 66.9 °F 81% 29.96 in 10.0 mi East 4.6 mph - N/A   Scattered Clouds
9:08 PM 73.4 °F 66.2 °F 78% 29.96 in 10.0 mi East 3.5 mph - N/A   Mostly Cloudy
9:53 PM 72.0 °F 66.9 °F 84% 29.96 in 10.0 mi ESE 3.5 mph - N/A   Scattered Clouds
10:53 PM 71.1 °F 66.9 °F 87% 29.97 in 10.0 mi East 3.5 mph - N/A   Scattered Clouds
11:53 PM 71.1 °F 66.9 °F 87% 29.96 in 10.0 mi East 5.8 mph - N/A   Scattered Clouds